Location: Newark
(45.2500°N, 7.5833°E)
Time: 22:24:42
(UTC+00:00)

Vanguard 3 - Pass Details

Date: 28 January 2020
Orbit: 508 x 3263 km, 33.3° (Epoch: 19 February)

Event Time Altitude Azimuth Distance (km) Brightness Sun altitude
Rises 23:19:40 0° 275° (W) 6,635 11.9 -62.5°
Enters shadow 23:25:19 - 262° (W) 5,511 11.3 -62.6°
Reaches altitude 10° 23:28:48 10° 250° (WSW) 4,908 - -62.7°
Maximum altitude 23:32:32 12° 234° (SW) 4,418 - -62.8°
Drops below altitude 10° 23:35:51 10° 217° (SW) 4,201 - -62.8°
Sets 23:41:50 0° 187° (S) 4,497 - -62.9°
